Weather History for Novato, CA

Change the Weather History Date:

Sunday, June 30, 2013

  Actual Average (KAPC) Record (KAPC)
Temperature  
Mean Temperature 75 °F 66 °F  
Max Temperature 95 °F 79 °F 94 °F (2002)
Min Temperature 55 °F 52 °F 47 °F (2007)
Degree Days  
Heating Degree Days 0    
Month to date heating degree days  
Since 1 June heating degree days  
Since 1 July heating degree days  
Cooling Degree Days 10    
Month to date cooling degree days  
Year to date cooling degree days  
Since 1 June cooling degree days  
Growing Degree Days 25 (Base 50)    
Moisture  
Dew Point 56 °F    
Average Humidity 62    
Maximum Humidity 100    
Minimum Humidity 25    
Precipitation  
Precipitation 0.00 in - 0.29 in (1992)
Month to date precipitation  
Year to date precipitation  
Since 1 July precipitation  
Sea Level Pressure  
Sea Level Pressure 29.81 in    
Wind  
Wind Speed 4 mph (North)    
Max Wind Speed 14 mph    
Max Gust Speed 18 mph    
Visibility 10 miles    
Events Rain    
T = Trace of Precipitation, MM = Missing Value Source: NWS Daily Summary

Daily Weather History Graph

Daily Weather History Graph

Search for Another Location

Airport:

Trip Planner

Search our weather history database for the weather conditions in past years. The results will help you decide how hot, cold, wet, or windy it might be!

Date:

Astronomy

Jun. 30, 2013 Rise Set
Actual Time 5:50 AM PDT 8:37 PM PDT
Civil Twilight 5:19 AM PDT 9:08 PM PDT
Nautical Twilight 4:39 AM PDT 9:47 PM PDT
Astronomical Twilight 3:55 AM PDT 10:32 PM PDT
Moon 12:47 AM PDT 2:01 PM PDT
Length of Visible Light 15h 49m
Length of Day
14h 46m
Last Quarter, 44% of the Moon is Illuminated
Jun 30
Last Quarter
Jul 8
New
Jul 15
First Quarter
Jul 22
Full
Jul 29
Last Quarter

Hourly Weather History & Observations

Time (PDT) Temp. Heat Index Dew Point Humidity Pressure Visibility Wind Dir Wind Speed Gust Speed Precip Events Conditions
12:15 AM 62.6 °F - 55.4 °F 77% 29.84 in 10.0 mi NNE 5.8 mph - N/A   Clear
12:35 AM 62.6 °F - 55.4 °F 77% 29.84 in 10.0 mi Calm Calm - N/A   Clear
12:55 AM 62.6 °F - 55.4 °F 77% 29.84 in 10.0 mi North 3.5 mph - N/A   Clear
1:15 AM 59.0 °F - 55.4 °F 88% 29.83 in 10.0 mi North 5.8 mph - N/A   Clear
1:35 AM 59.0 °F - 55.4 °F 88% 29.83 in 10.0 mi North 5.8 mph - N/A   Clear
1:55 AM 57.2 °F - 55.4 °F 94% 29.83 in 10.0 mi North 5.8 mph - N/A   Clear
2:15 AM 59.0 °F - 55.4 °F 88% 29.83 in 10.0 mi NNW 3.5 mph - N/A   Clear
2:35 AM 57.2 °F - 55.4 °F 94% 29.83 in 10.0 mi NNW 3.5 mph - N/A   Clear
2:55 AM 57.2 °F - 55.4 °F 94% 29.82 in 10.0 mi North 4.6 mph - N/A   Clear
3:15 AM 55.4 °F - 55.4 °F 100% 29.82 in 10.0 mi NNW 5.8 mph - N/A   Clear
3:35 AM 57.2 °F - 55.4 °F 94% 29.82 in 10.0 mi North 3.5 mph - N/A   Clear
3:55 AM 57.2 °F - 55.4 °F 94% 29.82 in 10.0 mi Calm Calm - N/A   Clear
4:15 AM 57.2 °F - 55.4 °F 94% 29.82 in 10.0 mi NNW 4.6 mph - N/A   Clear
4:35 AM 55.4 °F - 55.4 °F 100% 29.82 in 10.0 mi North 5.8 mph - N/A   Clear
4:55 AM 55.4 °F - 55.4 °F 100% 29.82 in 10.0 mi NNW 3.5 mph - N/A   Clear
5:15 AM 57.2 °F - 55.4 °F 94% 29.83 in 10.0 mi Calm Calm - N/A   Clear
5:35 AM 57.2 °F - 55.4 °F 94% 29.83 in 10.0 mi NW 3.5 mph - N/A   Clear
5:55 AM 55.4 °F - 55.4 °F 100% 29.83 in 10.0 mi North 3.5 mph - N/A   Clear
6:15 AM 55.4 °F - 55.4 °F 100% 29.84 in 10.0 mi Calm Calm - N/A   Clear
6:35 AM 57.2 °F - 55.4 °F 94% 29.84 in 10.0 mi Calm Calm - N/A   Clear
6:55 AM 59.0 °F - 55.4 °F 88% 29.84 in 10.0 mi Calm Calm - N/A   Clear
7:15 AM 59.0 °F - 57.2 °F 94% 29.84 in 10.0 mi Calm Calm - N/A   Clear
7:35 AM 60.8 °F - 57.2 °F 88% 29.85 in 10.0 mi Calm Calm - N/A   Clear
7:55 AM 62.6 °F - 55.4 °F 77% 29.85 in 10.0 mi Calm Calm - N/A   Clear
8:15 AM 66.2 °F - 55.4 °F 68% 29.85 in 10.0 mi Calm Calm - N/A   Clear
8:35 AM 66.2 °F - 55.4 °F 68% 29.86 in 10.0 mi Calm Calm - N/A   Clear
8:55 AM 68.0 °F - 55.4 °F 64% 29.85 in 10.0 mi Calm Calm - N/A   Clear
9:15 AM 71.6 °F - 55.4 °F 57% 29.84 in 10.0 mi Calm Calm - N/A   Clear
9:35 AM 75.2 °F - 55.4 °F 50% 29.84 in 8.0 mi Calm Calm - N/A   Clear
9:55 AM 77.0 °F - 55.4 °F 47% 29.84 in 7.0 mi East 3.5 mph - N/A   Clear
10:15 AM 78.8 °F - 55.4 °F 44% 29.84 in 10.0 mi SE 4.6 mph - N/A   Clear
10:35 AM 80.6 °F 81.1 °F 59.0 °F 48% 29.83 in 10.0 mi SSE 3.5 mph - N/A   Clear
10:55 AM 82.4 °F 82.0 °F 57.2 °F 42% 29.83 in 10.0 mi SE 3.5 mph - N/A   Clear
11:15 AM 84.2 °F 83.8 °F 59.0 °F 42% 29.83 in 10.0 mi ESE 6.9 mph - N/A   Clear
11:35 AM 84.2 °F 83.8 °F 59.0 °F 42% 29.82 in 10.0 mi SE 6.9 mph - N/A   Clear
11:55 AM 84.2 °F 83.8 °F 59.0 °F 42% 29.82 in 10.0 mi ESE 8.1 mph - N/A   Clear
12:15 PM 86.0 °F 85.4 °F 59.0 °F 40% 29.82 in 10.0 mi SE 5.8 mph - N/A   Clear
12:35 PM 89.6 °F 88.9 °F 59.0 °F 36% 29.81 in - NE 3.5 mph - N/A Rain Light Rain
12:55 PM 91.4 °F 89.4 °F 55.4 °F 29% 29.80 in - SSW 5.8 mph - N/A Rain Light Rain
1:15 PM 93.2 °F 91.9 °F 57.2 °F 30% 29.80 in - NE 3.5 mph - N/A Rain Light Rain
1:35 PM 95.0 °F 93.0 °F 55.4 °F 26% 29.80 in - NE 8.1 mph - N/A Rain Light Rain
1:55 PM 93.2 °F 91.3 °F 55.4 °F 28% 29.79 in - ENE 6.9 mph - N/A Rain Light Rain
2:15 PM 93.2 °F 91.9 °F 57.2 °F 30% 29.79 in - WSW 10.4 mph 18.4 mph N/A Rain Light Rain
2:35 PM 93.2 °F 91.9 °F 57.2 °F 30% 29.79 in - SW 11.5 mph - N/A   Clear
2:55 PM 93.2 °F 91.3 °F 55.4 °F 28% 29.79 in - SW 8.1 mph - N/A   Clear
3:15 PM 93.2 °F 91.9 °F 57.2 °F 30% 29.79 in - SSW 11.5 mph - N/A   Clear
3:35 PM 95.0 °F 93.0 °F 55.4 °F 26% 29.78 in - SSW 8.1 mph - N/A   Clear
3:55 PM 95.0 °F 92.7 °F 53.6 °F 25% 29.78 in - NNW 10.4 mph - N/A   Clear
4:15 PM 95.0 °F 93.0 °F 55.4 °F 26% 29.77 in - North 11.5 mph - N/A   Clear
4:35 PM 95.0 °F 93.0 °F 55.4 °F 26% 29.77 in - SW 6.9 mph - N/A   Clear
4:55 PM 91.4 °F 89.9 °F 57.2 °F 31% 29.76 in - WSW 6.9 mph - N/A   Clear
5:15 PM 91.4 °F 89.9 °F 57.2 °F 31% 29.76 in - SW 13.8 mph - N/A   Clear
5:35 PM 89.6 °F 87.7 °F 55.4 °F 31% 29.76 in - SW 5.8 mph - N/A   Clear
5:55 PM 87.8 °F 86.1 °F 55.4 °F 33% 29.75 in - SSW 5.8 mph - N/A   Clear
6:15 PM 86.0 °F 84.5 °F 55.4 °F 35% 29.75 in - SSW 8.1 mph - N/A   Clear
6:35 PM 86.0 °F 84.5 °F 55.4 °F 35% 29.75 in - South 4.6 mph - N/A   Clear
6:55 PM 84.2 °F 82.8 °F 53.6 °F 35% 29.75 in - SSW 5.8 mph - N/A   Clear
7:15 PM 82.4 °F 81.7 °F 55.4 °F 39% 29.75 in - South 8.1 mph - N/A   Clear
7:35 PM 80.6 °F 80.5 °F 55.4 °F 42% 29.75 in - SW 6.9 mph - N/A   Clear
7:55 PM 77.0 °F - 55.4 °F 47% 29.75 in 10.0 mi SE 5.8 mph - N/A   Clear
8:15 PM 75.2 °F - 55.4 °F 50% 29.76 in 10.0 mi SE 5.8 mph - N/A   Clear
8:35 PM 73.4 °F - 55.4 °F 53% 29.76 in 10.0 mi SSE 5.8 mph - N/A   Clear
8:55 PM 69.8 °F - 55.4 °F 60% 29.77 in 10.0 mi NE 6.9 mph - N/A   Clear
9:15 PM 66.2 °F - 55.4 °F 68% 29.77 in 10.0 mi NNE 5.8 mph - N/A   Clear
9:35 PM 66.2 °F - 57.2 °F 73% 29.77 in 10.0 mi NNE 5.8 mph - N/A   Clear
9:55 PM 64.4 °F - 57.2 °F 77% 29.78 in 10.0 mi NNE 6.9 mph - N/A   Clear
10:15 PM 62.6 °F - 57.2 °F 82% 29.79 in 10.0 mi NNE 4.6 mph - N/A   Clear
10:35 PM 62.6 °F - 55.4 °F 77% 29.80 in 10.0 mi Calm Calm - N/A   Clear
10:55 PM 62.6 °F - 57.2 °F 82% 29.81 in 10.0 mi NNE 3.5 mph - N/A   Clear
11:15 PM 59.0 °F - 57.2 °F 94% 29.80 in 10.0 mi NNW 5.8 mph - N/A   Clear
11:35 PM 59.0 °F - 57.2 °F 94% 29.81 in 10.0 mi North 5.8 mph - N/A   Clear
11:55 PM 59.0 °F - 57.2 °F 94% 29.81 in 10.0 mi NW 4.6 mph - N/A   Clear